• In Hungary
  • List of Countries
  • For 7 days
  • Water Temperature
  • Satellite Maps
  • Weather Map
  • News
  • Weather Widgets
  • user-avatar
    Login

    Hourly Weather Verhnie Koticy

    Today, 20 August, Monday

    Time Temperature Precipitation Wind Pressure Humidity
    00:00 +15°C° 0 mm 2 mps 743 mmHg 92%
    01:00 +15°C° 0 mm 2 mps 743 mmHg 93%
    02:00 +15°C° 0 mm 2 mps 743 mmHg 95%
    03:00 +15°C° 0 mm 2 mps 743 mmHg 96%
    04:00 +15°C° 0 mm 2 mps 743 mmHg 96%
    05:00 +16°C° 0 mm 2 mps 742 mmHg 96%
    06:00 +16°C° 0.1 mm 2 mps 742 mmHg 94%
    07:00 +17°C° 0.1 mm 2 mps 742 mmHg 92%
    08:00 +18°C° 0.1 mm 2 mps 742 mmHg 90%
    09:00 +18°C° 0.2 mm 3 mps 742 mmHg 87%
    10:00 +19°C° 0.2 mm 3 mps 742 mmHg 84%
    11:00 +20°C° 0.2 mm 3 mps 742 mmHg 82%
    12:00 +20°C° 0.6 mm 3 mps 742 mmHg 83%
    13:00 +20°C° 0.6 mm 3 mps 741 mmHg 84%
    14:00 +20°C° 0.6 mm 3 mps 741 mmHg 86%
    15:00 +20°C° 0.3 mm 3 mps 741 mmHg 86%
    16:00 +20°C° 0.3 mm 2 mps 740 mmHg 87%
    17:00 +20°C° 0.3 mm 2 mps 740 mmHg 87%
    18:00 +19°C° 0 mm 2 mps 739 mmHg 89%
    19:00 +19°C° 0 mm 2 mps 739 mmHg 91%
    20:00 +18°C° 0 mm 2 mps 738 mmHg 93%
    21:00 +18°C° 0 mm 3 mps 738 mmHg 93%
    22:00 +18°C° 0 mm 3 mps 737 mmHg 93%
    23:00 +18°C° 0 mm 4 mps 737 mmHg 93%

    Tomorrow, 21 August, Tuesday

    Time Temperature Precipitation Wind Pressure Humidity
    00:00 +18°C° 0 mm 4 mps 736 mmHg 93%
    01:00 +18°C° 0 mm 4 mps 735 mmHg 93%
    02:00 +18°C° 0 mm 4 mps 735 mmHg 93%
    03:00 +18°C° 0.5 mm 4 mps 734 mmHg 94%
    04:00 +16°C° 0.5 mm 5 mps 734 mmHg 94%
    05:00 +16°C° 0.5 mm 5 mps 733 mmHg 95%
    06:00 +16°C° 0.5 mm 5 mps 733 mmHg 94%
    07:00 +16°C° 0.5 mm 5 mps 733 mmHg 94%
    08:00 +16°C° 0.5 mm 5 mps 733 mmHg 93%
    09:00 +15°C° 0.2 mm 6 mps 734 mmHg 89%
    10:00 +15°C° 0.2 mm 6 mps 734 mmHg 85%
    11:00 +15°C° 0.2 mm 6 mps 735 mmHg 81%
    12:00 +15°C° 0.1 mm 6 mps 735 mmHg 76%
    13:00 +15°C° 0.1 mm 6 mps 736 mmHg 72%
    14:00 +16°C° 0.1 mm 6 mps 736 mmHg 67%
    15:00 +15°C° 0.2 mm 6 mps 737 mmHg 70%
    16:00 +15°C° 0.2 mm 5 mps 737 mmHg 73%
    17:00 +14°C° 0.2 mm 5 mps 738 mmHg 76%
    18:00 +13°C° 0.1 mm 4 mps 738 mmHg 81%
    19:00 +12°C° 0.1 mm 3 mps 738 mmHg 85%
    20:00 +11°C° 0.1 mm 3 mps 739 mmHg 90%
    21:00 +11°C° 0 mm 3 mps 739 mmHg 89%
    22:00 +10°C° 0 mm 3 mps 739 mmHg 88%
    23:00 +10°C° 0 mm 3 mps 740 mmHg 88%

    Day after tomorrow, 22 August, Wednesday

    Time Temperature Precipitation Wind Pressure Humidity
    00:00 +10°C° 0 mm 3 mps 740 mmHg 87%
    01:00 +10°C° 0 mm 3 mps 740 mmHg 87%
    02:00 +10°C° 0 mm 3 mps 741 mmHg 87%
    03:00 +9°C° 0 mm 3 mps 741 mmHg 88%
    04:00 +8°C° 0 mm 4 mps 741 mmHg 89%
    05:00 +8°C° 0 mm 4 mps 742 mmHg 89%
    06:00 +10°C° 0 mm 4 mps 742 mmHg 82%
    07:00 +11°C° 0 mm 4 mps 743 mmHg 75%
    08:00 +12°C° 0 mm 5 mps 743 mmHg 68%
    09:00 +13°C° 0 mm 5 mps 744 mmHg 62%
    10:00 +14°C° 0 mm 5 mps 744 mmHg 55%
    11:00 +15°C° 0 mm 5 mps 744 mmHg 48%
    12:00 +16°C° 0 mm 5 mps 744 mmHg 47%
    13:00 +16°C° 0 mm 5 mps 745 mmHg 45%
    14:00 +17°C° 0 mm 5 mps 745 mmHg 44%
    15:00 +17°C° 0 mm 4 mps 745 mmHg 46%
    16:00 +17°C° 0 mm 4 mps 745 mmHg 49%
    17:00 +17°C° 0 mm 3 mps 745 mmHg 51%
    18:00 +14°C° 0 mm 3 mps 746 mmHg 59%
    19:00 +13°C° 0 mm 2 mps 746 mmHg 67%
    20:00 +10°C° 0 mm 2 mps 746 mmHg 76%
    21:00 +10°C° 0 mm 2 mps 746 mmHg 78%
    22:00 +9°C° 0 mm 2 mps 747 mmHg 81%
    23:00 +8°C° 0 mm 2 mps 747 mmHg 83%

    23 August, Thursday

    Time Temperature Precipitation Wind Pressure Humidity
    00:00 +8°C° 0 mm 2 mps 747 mmHg 84%
    01:00 +8°C° 0 mm 2 mps 747 mmHg 85%
    02:00 +8°C° 0 mm 2 mps 747 mmHg 86%
    03:00 +7°C° 0 mm 2 mps 747 mmHg 86%
    04:00 +7°C° 0 mm 2 mps 747 mmHg 86%
    05:00 +7°C° 0 mm 2 mps 747 mmHg 86%
    06:00 +9°C° 0 mm 2 mps 747 mmHg 78%
    07:00 +13°C° 0 mm 2 mps 747 mmHg 71%
    08:00 +14°C° 0 mm 3 mps 747 mmHg 63%
    09:00 +16°C° 0 mm 3 mps 747 mmHg 59%
    10:00 +18°C° 0 mm 3 mps 747 mmHg 54%
    11:00 +19°C° 0 mm 3 mps 747 mmHg 49%
    12:00 +20°C° 0 mm 4 mps 747 mmHg 48%
    13:00 +21°C° 0 mm 4 mps 746 mmHg 46%
    14:00 +21°C° 0 mm 4 mps 746 mmHg 45%
    15:00 +21°C° 0 mm 3 mps 746 mmHg 49%
    16:00 +20°C° 0 mm 3 mps 746 mmHg 52%
    17:00 +20°C° 0 mm 2 mps 746 mmHg 56%
    18:00 +18°C° 0 mm 2 mps 745 mmHg 63%
    19:00 +16°C° 0 mm 2 mps 745 mmHg 70%
    20:00 +14°C° 0 mm 2 mps 745 mmHg 76%
    21:00 +13°C° 0 mm 2 mps 745 mmHg 79%
    22:00 +12°C° 0 mm 2 mps 745 mmHg 81%
    23:00 +12°C° 0 mm 2 mps 746 mmHg 83%

    24 August, Friday

    Time Temperature Precipitation Wind Pressure Humidity
    00:00 +12°C° 0 mm 2 mps 746 mmHg 86%
    01:00 +10°C° 0 mm 2 mps 746 mmHg 88%
    02:00 +10°C° 0 mm 2 mps 746 mmHg 91%
    03:00 +9°C° 0 mm 2 mps 746 mmHg 92%
    04:00 +9°C° 0 mm 2 mps 745 mmHg 93%
    05:00 +9°C° 0 mm 2 mps 745 mmHg 94%
    06:00 +12°C° 0 mm 2 mps 745 mmHg 86%
    07:00 +14°C° 0 mm 2 mps 745 mmHg 77%
    08:00 +16°C° 0 mm 2 mps 745 mmHg 69%
    09:00 +18°C° 0 mm 2 mps 745 mmHg 63%
    10:00 +20°C° 0 mm 3 mps 745 mmHg 57%
    11:00 +22°C° 0 mm 3 mps 745 mmHg 51%
    12:00 +22°C° 0 mm 3 mps 745 mmHg 49%
    13:00 +24°C° 0 mm 3 mps 745 mmHg 48%
    14:00 +24°C° 0 mm 3 mps 745 mmHg 46%
    15:00 +24°C° 0 mm 2 mps 744 mmHg 51%
    16:00 +23°C° 0 mm 2 mps 744 mmHg 55%
    17:00 +23°C° 0 mm 2 mps 744 mmHg 59%
    18:00 +20°C° 0 mm 2 mps 744 mmHg 66%
    19:00 +18°C° 0 mm 2 mps 744 mmHg 73%
    20:00 +15°C° 0 mm 2 mps 744 mmHg 81%
    21:00 +15°C° 0 mm 2 mps 744 mmHg 83%
    22:00 +14°C° 0 mm 2 mps 744 mmHg 85%
    23:00 +14°C° 0 mm 2 mps 744 mmHg 87%

    25 August, Saturday

    Time Temperature Precipitation Wind Pressure Humidity
    00:00 +13°C° 0 mm 2 mps 744 mmHg 88%
    01:00 +13°C° 0 mm 2 mps 744 mmHg 89%
    02:00 +13°C° 0 mm 2 mps 744 mmHg 91%
    03:00 +13°C° 0 mm 2 mps 744 mmHg 91%
    04:00 +13°C° 0 mm 2 mps 744 mmHg 91%
    05:00 +11°C° 0 mm 3 mps 744 mmHg 91%
    06:00 +13°C° 0 mm 3 mps 744 mmHg 83%
    07:00 +16°C° 0 mm 3 mps 744 mmHg 74%
    08:00 +18°C° 0 mm 3 mps 744 mmHg 66%
    09:00 +20°C° 0 mm 3 mps 743 mmHg 59%
    10:00 +22°C° 0 mm 4 mps 743 mmHg 53%
    11:00 +25°C° 0 mm 4 mps 743 mmHg 46%
    12:00 +25°C° 0 mm 4 mps 743 mmHg 45%
    13:00 +26°C° 0 mm 4 mps 743 mmHg 44%
    14:00 +26°C° 0 mm 3 mps 743 mmHg 43%
    15:00 +25°C° 0 mm 3 mps 743 mmHg 48%
    16:00 +25°C° 0 mm 2 mps 742 mmHg 52%
    17:00 +24°C° 0 mm 2 mps 742 mmHg 57%
    18:00 +21°C° 0 mm 2 mps 742 mmHg 64%
    19:00 +19°C° 0 mm 2 mps 742 mmHg 71%
    20:00 +17°C° 0 mm 2 mps 742 mmHg 78%
    21:00 +16°C° 0 mm 2 mps 742 mmHg 79%
    22:00 +15°C° 0 mm 2 mps 742 mmHg 80%
    23:00 +14°C° 0 mm 2 mps 742 mmHg 81%
    Show more